[[{"header":{"parameterUnit":"m.s-1","parameterCategory":1,"la1":30.2991,"la2":30.254,"lo1":-89.0895,"lo2":-89.0444,"dy":0.0017,"dx":0.0017,"nx":28,"ny":28,"refTime":"2024-11-26T09:00:00:Z","depth":0,"parameterNumber":2,"parameterNumberName":"U-component_of_WINDS"},"data":[0,0,0,0,0,0,0,0,0,0,0,0,0,0,0,0,0,0,0,0,0,0,0,0,0,0,0,0,0,0,0,0,0,0,0,0,0,0,0,0,0,0,0,0,0,0,0,0,0,0,0,0,0,0,0,0,0,0,2.1935,2.1936,0,2.2042,2.2043,2.2044,2.2044,2.2043,2.2041,2.204,2.2151,2.2155,2.216,0,0,0,0,0,0,0,0,0,0,0,0,0,2.1731,2.1735,2.1934,2.1936,2.1937,2.2041,2.2043,2.2044,2.2044,2.2043,2.2041,2.2039,2.215,2.2155,2.216,0,0,0,0,0,0,0,0,0,0,0,0,0,2.1827,2.1736,2.1934,2.195,2.1952,2.2041,2.2043,2.2045,2.2045,2.2043,2.204,2.2039,2.2148,2.2154,2.2161,2.2242,0,0,2.218,2.2183,0,0,0,0,0,0,0,0,2.1822,2.1834,2.1946,2.1949,2.1952,2.2027,2.2012,2.2111,2.2045,2.201,2.204,2.2037,2.2112,2.2121,2.2146,2.2247,2.2252,2.2181,2.2185,2.2187,2.2189,0,0,0,0,0,0,0,2.1815,2.183,2.1977,2.1948,2.1951,2.1952,2.1963,2.2031,2.2071,2.2013,2.2013,2.2025,2.2113,2.214,2.2148,2.2254,2.2181,2.2186,2.219,2.2193,2.2427,2.2429,0,0,0,0,0,0,2.1805,2.1824,2.1974,2.198,2.188,2.1957,2.197,2.2005,2.207,2.2078,2.2027,2.2025,2.213,2.2141,2.2152,2.2252,2.2187,2.2193,2.2197,2.2425,2.2428,2.243,0,0,0,0,0,0,2.1801,2.1818,2.1969,2.1902,2.1922,2.1963,2.2003,2.2008,2.2035,2.2081,2.2089,2.2047,2.2129,2.2143,2.222,2.2256,2.2196,2.2202,2.2422,2.2426,2.2429,2.2451,0,0,0,0,0,0,2.1795,2.1817,2.1848,2.1903,2.1925,2.2034,2.2005,2.2012,2.2046,2.2044,2.2102,2.2109,2.2128,2.221,2.2226,2.2263,2.2207,2.2419,2.2424,2.2428,2.2447,2.2455,2.2462,0,0,0,0,0,2.1787,2.185,2.1849,2.1867,2.1965,2.2036,2.2049,2.2069,2.2049,2.208,2.211,2.2108,2.2249,2.2218,2.2236,2.2276,2.2417,2.2422,2.2428,2.2444,2.2454,2.2461,0,0,0,0,0,0,2.1798,2.1858,2.1857,2.194,2.1983,2.2036,2.2077,2.2078,2.2128,2.2125,2.2147,2.2161,2.2237,2.2264,2.2228,2.2358,2.2331,2.234,2.2337,2.2346,2.2353,2.2345,2.2212,0,0,0,0,0,2.181,2.1863,2.1912,2.198,2.2002,2.2036,2.2067,2.2079,2.2125,2.2143,2.2179,2.2224,2.2278,2.2314,2.2367,2.2451,2.2464,2.2488,2.2495,2.25,2.2508,2.2555,2.2566,2.2448,2.2448,2.2448,0,0,2.1836,2.1874,2.1906,2.1983,2.2018,2.2073,2.2051,2.211,2.215,2.2152,2.2226,2.2254,2.2306,2.2386,2.2424,2.2411,2.2543,2.2507,2.2511,2.2516,2.2561,2.2572,2.2582,2.2452,2.2451,2.245,0,0,2.1909,2.1944,2.2004,2.204,2.2092,2.2115,2.2129,2.2182,2.22,2.2275,2.2277,2.2327,2.242,2.2457,2.2488,2.2576,2.2575,2.2592,2.2629,2.2674,2.2684,2.2692,2.2723,2.2734,2.26,2.26,2.26,0,2.1934,2.2016,2.2035,2.2094,2.2128,2.2131,2.2193,2.2226,2.2294,2.2317,2.2302,2.242,2.2455,2.2544,2.2566,2.2591,2.2608,2.2586,2.2681,2.2689,2.2697,2.2727,2.2739,2.2601,2.2601,2.2601,2.2601,0,2.2044,2.21,2.2143,2.2207,2.2246,2.2306,2.2334,2.2371,2.2379,2.2403,2.2479,2.2521,2.2583,2.2605,2.2613,2.2695,2.2686,2.2676,2.2649,2.271,2.2738,2.275,2.2604,2.2603,2.2603,2.2602,0,0,2.2127,2.2202,2.2217,2.2246,2.2305,2.2349,2.2409,2.2469,2.25,2.2546,2.2597,2.2676,2.2667,2.2702,2.2715,2.2755,2.2822,2.274,2.2742,2.2753,2.2914,2.2921,2.2934,2.2821,2.2824,2.2826,2.291,0,2.2207,2.2313,2.2332,2.2425,2.2478,2.2482,2.2535,2.2576,2.26,2.2649,2.2675,2.2731,2.2714,2.2736,2.2775,2.2805,2.2854,2.2799,2.2869,2.2872,2.2856,2.2949,2.2957,2.3035,2.2921,2.2923,2.2925,0,2.2314,2.2363,2.2461,2.2512,2.2535,2.2582,2.2638,2.2684,2.2732,2.2746,2.2785,2.2794,2.2857,2.2827,2.2914,2.2876,2.2906,2.2925,2.2929,2.2936,2.2902,2.2959,2.306,2.3072,2.2942,2.2941,2.294,0,2.2365,2.2455,2.2525,2.255,2.2612,2.2645,2.2672,2.2718,2.2752,2.2801,2.2824,2.288,2.2911,2.2954,2.2978,2.2954,2.3063,2.3035,2.3077,2.3076,2.31,2.3098,2.3207,2.3119,2.3119,2.3119,2.3119,0,2.2452,2.2512,2.2549,2.2592,2.2659,2.2681,2.2747,2.2774,2.2814,2.2863,2.287,2.2916,2.2944,2.2994,2.3013,2.3082,2.3096,2.311,2.3114,2.3109,2.3107,2.3129,2.3124,2.3122,2.3121,2.3121,2.312,0,2.252,2.2547,2.2624,2.2676,2.2691,2.2738,2.2783,2.2825,2.2849,2.291,2.2926,2.2963,2.3022,2.305,2.3123,2.3136,2.3214,2.3215,2.3198,2.32,2.324,2.3236,2.3366,2.3384,2.3285,2.3286,2.3287,0,2.2573,2.2619,2.2676,2.2709,2.2737,2.279,2.2825,2.2849,2.2885,2.2943,2.2978,2.3037,2.3086,2.318,2.3214,2.327,2.3272,2.3314,2.3281,2.3274,2.3273,2.3269,2.3274,2.332,2.3321,2.3322,2.3322,0,2.2665,2.2677,2.2727,2.2782,2.2823,2.2868,2.2912,2.2938,2.2969,2.3009,2.3069,2.3107,2.3181,2.324,2.3299,2.3327,2.333,2.3333,2.3345,2.3341,2.3329,2.3335,2.3214,2.333,2.3329,2.3328,2.3328,2.3328,2.2728,2.2768,2.2815,2.2871,2.2906,2.2947,2.2989,2.3018,2.3068,2.313,2.3141,2.3205,2.3252,2.333,2.3361,2.3412,2.3402,2.342,2.3425,2.3429,2.3431,2.3321,2.3422,2.3422,2.3422,2.3422,2.3422,0,2.282,2.285,2.2901,2.2961,2.3005,2.3004,2.3052,2.3089,2.3145,2.3188,2.3236,2.3305,2.3362,2.34,2.3458,2.3491,2.3494,2.3506,2.3504,2.351,2.3437,2.342,2.3503,2.3503,2.3503,2.3503,2.3503,2.3503,2.2873,2.2942,2.2959,2.3045,2.3075,2.3138,2.3166,2.3203,2.3238,2.3314,2.3362,2.3386,2.3428,2.3489,2.3541,2.3551,2.3572,2.3584,2.3593,2.3524,2.3515,2.3507,2.3492,2.3588,2.3588,2.3663,2.3663,2.3664]},{"header":{"parameterUnit":"m.s-1","parameterCategory":1,"la1":30.2991,"la2":30.254,"lo1":-89.0895,"lo2":-89.0444,"dy":0.0017,"dx":0.0017,"nx":28,"ny":28,"refTime":"2024-11-26T09:00:00:Z","depth":0,"parameterNumber":3,"parameterNumberName":"V-component_of_WINDS"},"data":[0,0,0,0,0,0,0,0,0,0,0,0,0,0,0,0,0,0,0,0,0,0,0,0,0,0,0,0,0,0,0,0,0,0,0,0,0,0,0,0,0,0,0,0,0,0,0,0,0,0,0,0,0,0,0,0,0,0,3.4951,3.4952,0,3.5069,3.5071,3.5072,3.5056,3.5054,3.5052,3.5051,3.517,3.5175,3.5179,0,0,0,0,0,0,0,0,0,0,0,0,0,3.4709,3.4713,3.4951,3.4952,3.4954,3.5069,3.5071,3.5072,3.5057,3.5054,3.5052,3.505,3.5168,3.5174,3.518,0,0,0,0,0,0,0,0,0,0,0,0,0,3.4819,3.4715,3.495,3.496,3.4962,3.5069,3.5071,3.5073,3.5057,3.5054,3.5051,3.5049,3.5166,3.5173,3.5181,3.5285,0,0,3.5204,3.5207,0,0,0,0,0,0,0,0,3.4813,3.4828,3.4957,3.4959,3.4962,3.5045,3.5029,3.5144,3.5058,3.5021,3.505,3.5047,3.513,3.5141,3.5169,3.5291,3.5296,3.5204,3.5209,3.5212,3.5214,0,0,0,0,0,0,0,3.4805,3.4823,3.4997,3.4959,3.4962,3.4958,3.497,3.5051,3.509,3.5024,3.5023,3.5037,3.5131,3.5162,3.5172,3.5298,3.5204,3.5211,3.5215,3.5218,3.5514,3.5517,0,0,0,0,0,0,3.4796,3.4817,3.4994,3.5001,3.4879,3.4964,3.4978,3.5021,3.509,3.5097,3.504,3.5036,3.5151,3.5163,3.5176,3.5305,3.5212,3.5219,3.5223,3.551,3.5515,3.5518,0,0,0,0,0,0,3.479,3.4811,3.4989,3.4909,3.4931,3.4972,3.502,3.5025,3.5056,3.5102,3.5108,3.5064,3.5149,3.5166,3.5259,3.5309,3.5222,3.5229,3.5507,3.5512,3.5516,3.5563,0,0,0,0,0,0,3.4784,3.481,3.485,3.491,3.4935,3.5071,3.5023,3.503,3.5069,3.5066,3.5126,3.5134,3.5148,3.5248,3.5267,3.5318,3.5235,3.5502,3.5509,3.5515,3.5557,3.5569,3.5579,0,0,0,0,0,3.4775,3.4857,3.4852,3.4874,3.4987,3.5073,3.5088,3.5103,3.5073,3.5114,3.5144,3.5132,3.53,3.5258,3.5278,3.5333,3.5499,3.5507,3.5514,3.5552,3.5567,3.5579,0,0,0,0,0,0,3.4801,3.4865,3.486,3.4965,3.5014,3.5071,3.5123,3.5118,3.5176,3.517,3.5186,3.52,3.5295,3.5323,3.5274,3.5439,3.5396,3.5408,3.5417,3.5432,3.5442,3.5434,3.5241,0,0,0,0,0,3.4819,3.4885,3.4937,3.5024,3.5049,3.5082,3.512,3.5128,3.5179,3.52,3.5236,3.5285,3.535,3.5392,3.5453,3.5561,3.5575,3.5608,3.5619,3.5628,3.5639,3.57,3.5716,3.5543,3.5543,3.5543,0,0,3.4857,3.49,3.494,3.5031,3.507,3.5137,3.5099,3.5172,3.5222,3.521,3.5302,3.533,3.5387,3.5488,3.5535,3.5514,3.569,3.5638,3.5644,3.565,3.5709,3.5726,3.574,3.5548,3.5547,3.5546,0,0,3.4961,3.5,3.5078,3.5118,3.5178,3.52,3.5219,3.5277,3.5296,3.5388,3.5381,3.544,3.555,3.5592,3.5627,3.5749,3.574,3.5768,3.5826,3.5885,3.5899,3.5911,3.5957,3.5972,3.5778,3.5778,3.5778,0,3.5,3.5103,3.5118,3.5193,3.5233,3.5227,3.5306,3.5344,3.5421,3.5449,3.5425,3.5565,3.5602,3.5714,3.5744,3.5772,3.5795,3.5762,3.5896,3.5908,3.592,3.5963,3.598,3.5781,3.5781,3.5781,3.578,0,3.5149,3.522,3.5276,3.5352,3.5399,3.5475,3.5502,3.5547,3.5551,3.5575,3.567,3.5715,3.5786,3.5813,3.5817,3.5927,3.5913,3.5892,3.5849,3.5939,3.5981,3.5997,3.5786,3.5785,3.5784,3.5783,0,0,3.5273,3.5358,3.5379,3.5414,3.5481,3.5536,3.5612,3.5684,3.5723,3.5776,3.5841,3.5935,3.5918,3.5958,3.5966,3.6018,3.6114,3.5991,3.5993,3.6015,3.6241,3.6257,3.6276,3.6108,3.6112,3.6114,3.6237,0,3.5385,3.5522,3.5539,3.566,3.5727,3.5722,3.5789,3.5837,3.5862,3.5922,3.5948,3.6016,3.5986,3.601,3.6061,3.6092,3.616,3.6083,3.617,3.6173,3.6159,3.6297,3.6315,3.6428,3.6253,3.6255,3.6257,0,3.5534,3.5594,3.5723,3.5782,3.5811,3.5871,3.5939,3.5996,3.6051,3.6065,3.6111,3.6113,3.6192,3.6145,3.6256,3.6203,3.6239,3.626,3.6264,3.6275,3.6222,3.6313,3.6465,3.6482,3.6282,3.628,3.6278,0,3.5615,3.5727,3.5819,3.5849,3.592,3.5963,3.5994,3.6046,3.6089,3.6148,3.6176,3.6242,3.6279,3.6331,3.6351,3.6315,3.6461,3.6415,3.6476,3.6476,3.6509,3.6507,3.667,3.6529,3.6528,3.6528,3.6528,0,3.5739,3.5819,3.5857,3.5914,3.6003,3.6021,3.6109,3.6138,3.6185,3.6247,3.6246,3.6305,3.6327,3.639,3.6406,3.6496,3.6512,3.6526,3.653,3.6528,3.6526,3.6553,3.6547,3.6533,3.6532,3.6531,3.653,0,3.5845,3.5873,3.5974,3.6034,3.605,3.6114,3.6165,3.622,3.6244,3.6324,3.6343,3.6381,3.6455,3.648,3.6568,3.6579,3.6685,3.6681,3.6667,3.6669,3.6729,3.6724,3.6917,3.6944,3.6783,3.6784,3.6786,0,3.5923,3.5985,3.6052,3.6095,3.6128,3.6196,3.6241,3.6261,3.6307,3.6375,3.6422,3.6496,3.6556,3.6673,3.6709,3.6777,3.6776,3.6839,3.6786,3.6782,3.6779,3.6776,3.6784,3.6849,3.6851,3.6852,3.6853,0,3.6061,3.6072,3.6136,3.6206,3.626,3.6315,3.6369,3.6403,3.6432,3.6483,3.656,3.6606,3.6698,3.6771,3.6842,3.6873,3.6869,3.6869,3.6887,3.6887,3.6878,3.6886,3.6697,3.6865,3.6864,3.6863,3.6862,3.6862,3.6157,3.6212,3.6269,3.6341,3.6384,3.6435,3.6491,3.6523,3.6587,3.6664,3.6672,3.6754,3.6809,3.6903,3.6938,3.7003,3.6985,3.7011,3.7018,3.7025,3.7031,3.6866,3.7015,3.7015,3.7015,3.7014,3.7014,0,3.6296,3.6333,3.6399,3.6475,3.6533,3.6524,3.6583,3.6631,3.6705,3.6756,3.6816,3.6905,3.6976,3.7018,3.7089,3.7133,3.7133,3.7152,3.715,3.7158,3.7041,3.7019,3.7151,3.7151,3.7151,3.7151,3.7151,3.7151,3.6375,3.647,3.6488,3.6604,3.664,3.6722,3.6757,3.6804,3.6846,3.6946,3.7006,3.7033,3.7081,3.7156,3.7222,3.7232,3.7259,3.728,3.7289,3.718,3.7166,3.7152,3.7132,3.7285,3.7286,3.7401,3.7402,3.7403]}]]